GW1476 Weather Reports


time (UTC)temp
C
wind
direction
speed
KPH
gust
KPH
rain 1hr
cm
rain 24hr
cm
rain mn
cm
humidity
%
barometer
mb
20260505090330 10 203 3.2 4.8 0.00 0.00 0.00 99 1013.8
20260505085725 10 203 3.2 3.2 0.00 0.00 0.00 99 1013.8
20260505085123 10 338 0.0 3.2 0.00 0.00 0.00 99 1013.8
20260505084548 10 158 3.2 3.2 0.00 0.00 0.00 99 1013.8
20260505083930 10 225 1.6 6.4 0.00 0.00 0.00 99 1013.5
20260505082713 10 158 0.0 0.0 0.00 0.00 0.00 99 1013.5
20260505081509 10 225 3.2 4.8 0.00 0.00 0.00 99 1013.8
20260505080952 10 225 3.2 4.8 0.00 0.00 0.00 99 1013.5
20260505080308 10 0 3.2 3.2 0.00 0.00 0.00 99 1013.5
20260505075729 10 180 3.2 3.2 0.00 0.00 0.00 99 1013.5
20260505075111 10 270 1.6 6.4 0.00 0.00 0.00 99 1013.5
20260505073939 10 270 1.6 4.8 0.00 0.00 0.00 99 1013.5
20260505073351 10 45 0.0 3.2 0.00 0.00 0.00 99 1013.5
20260505072150 10 315 0.0 4.8 0.00 0.00 0.00 99 1013.5
20260505070926 10 203 1.6 4.8 0.00 0.00 0.00 99 1013.5
20260505070310 10 293 3.2 3.2 0.00 0.00 0.00 99 1013.5
20260505065740 10 270 0.0 0.0 0.00 0.00 0.00 99 1013.5
20260505064531 11 225 0.0 1.6 0.00 0.00 0.00 99 1013.5
20260505063912 11 203 1.6 3.2 0.00 0.00 0.00 99 1013.5
20260505063352 11 248 3.2 3.2 0.00 0.00 0.00 99 1013.5
20260505062752 11 225 0.0 0.0 0.00 0.00 0.00 99 1013.5
20260505062120 11 225 1.6 3.2 0.00 0.00 0.00 99 1013.5
20260505060932 11 180 3.2 3.2 0.00 0.00 0.00 99 1013.5
20260505060347 11 225 1.6 3.2 0.00 0.00 0.00 99 1013.5
20260505055730 11 225 1.6 1.6 0.00 0.00 0.00 99 1013.5
20260505055120 11 158 0.0 3.2 0.00 0.00 0.00 99 1013.2
20260505054545 11 248 3.2 3.2 0.00 0.00 0.00 99 1013.2
20260505053930 11 180 1.6 1.6 0.00 0.00 0.00 99 1013.2
20260505053309 11 203 1.6 4.8 0.00 0.00 0.00 99 1013.2
20260505051537 12 270 0.0 3.2 0.00 0.00 0.00 99 1013.2
20260505050326 12 180 1.6 1.6 0.00 0.00 0.00 99 1013.2
20260505041526 12 293 0.0 1.6 0.00 0.00 0.00 99 1012.5
20260505040919 12 293 1.6 1.6 0.00 0.00 0.00 99 1012.5
20260505035138 13 248 1.6 3.2 0.00 0.00 0.00 99 1012.5
20260505034556 13 293 0.0 1.6 0.00 0.00 0.00 99 1012.1
20260505033913 13 180 0.0 3.2 0.00 0.00 0.00 99 1012.5
20260505033320 13 225 0.0 0.0 0.00 0.00 0.00 98 1012.5
20260505032719 13 180 1.6 1.6 0.00 0.00 0.00 98 1012.1
20260505032128 13 158 0.0 1.6 0.00 0.00 0.00 98 1012.1
20260505031514 13 23 0.0 1.6 0.00 0.00 0.00 97 1012.1
20260505030941 13 270 0.0 3.2 0.00 0.00 0.00 97 1012.1
20260505030344 13 248 1.6 3.2 0.00 0.00 0.00 97 1012.1
20260505025743 13 225 1.6 1.6 0.00 0.00 0.00 96 1012.1
20260505025129 14 225 0.0 1.6 0.00 0.00 0.00 95 1012.1
20260505024538 14 180 0.0 1.6 0.00 0.00 0.00 94 1012.1
20260505022123 15 135 0.0 3.2 0.00 0.00 0.00 91 1012.1
20260505021512 15 248 3.2 3.2 0.00 0.00 0.00 91 1012.1
20260505020926 15 270 0.0 1.6 0.00 0.00 0.00 91 1012.1
20260505020317 15 248 0.0 0.0 0.00 0.00 0.00 91 1012.1
20260505015154 16 248 1.6 1.6 0.00 0.00 0.00 88 1012.1
20260505014530 16 203 1.6 3.2 0.00 0.00 0.00 88 1012.1
20260505013918 16 180 1.6 3.2 0.00 0.00 0.00 87 1012.1
20260505013318 16 180 0.0 3.2 0.00 0.00 0.00 86 1012.1
20260505012711 16 270 0.0 0.0 0.00 0.00 0.00 84 1012.1
20260505012147 17 203 1.6 3.2 0.00 0.00 0.00 84 1012.1
20260505011536 17 180 1.6 3.2 0.00 0.00 0.00 82 1011.8
20260505010914 17 225 0.0 1.6 0.00 0.00 0.00 81 1011.8
20260505010331 17 225 0.0 3.2 0.00 0.00 0.00 80 1011.8
20260505005751 18 225 0.0 0.0 0.00 0.00 0.00 79 1011.8
20260505005121 18 180 3.2 3.2 0.00 0.00 0.00 78 1011.8
20260505004534 18 203 3.2 3.2 0.00 0.00 0.00 77 1011.5
20260505003929 19 270 3.2 3.2 0.00 0.00 0.00 76 1011.5
20260505003354 19 203 1.6 1.6 0.00 0.00 0.00 74 1011.5
20260505002111 20 158 4.8 4.8 0.00 0.00 0.00 72 1011.8
20260505001513 21 203 3.2 4.8 0.00 0.00 0.00 69 1011.8
20260505000916 21 180 3.2 3.2 0.00 0.00 0.00 67 1011.8
20260505000318 22 203 4.8 4.8 0.00 0.00 0.00 61 1011.8
20260504235715 22 158 4.8 6.4 0.00 0.00 0.00 60 1011.5
20260504234528 23 90 1.6 3.2 0.00 0.00 0.00 57 1011.5
20260504233933 25 338 3.2 6.4 0.00 0.00 0.00 51 1011.5
20260504233341 25 270 4.8 6.4 0.00 0.00 0.00 51 1011.5
20260504232715 26 180 9.7 9.7 0.00 0.00 0.00 49 1011.5
20260504232153 26 315 6.4 6.4 0.00 0.00 0.00 48 1011.5
20260504231519 26 180 3.2 6.4 0.00 0.00 0.00 49 1011.5
20260504230952 26 315 3.2 9.7 0.00 0.00 0.00 49 1011.5
20260504225714 26 203 3.2 4.8 0.00 0.00 0.00 51 1011.5
20260504225147 26 338 1.6 9.7 0.00 0.00 0.00 50 1011.5
20260504224511 26 180 4.8 6.4 0.00 0.00 0.00 50 1011.8
20260504223935 26 203 4.8 6.4 0.00 0.00 0.00 49 1011.5
20260504223316 27 270 4.8 4.8 0.00 0.00 0.00 48 1011.8
20260504222753 27 180 3.2 11.3 0.00 0.00 0.00 49 1011.5
20260504222112 27 68 1.6 8.0 0.00 0.00 0.00 50 1011.5
20260504221522 28 225 8.0 9.7 0.00 0.00 0.00 47 1011.8
20260504220927 28 293 1.6 6.4 0.00 0.00 0.00 46 1011.5
20260504220316 28 23 8.0 8.0 0.00 0.00 0.00 47 1011.5
20260504215123 27 0 9.7 9.7 0.00 0.00 0.00 48 1011.8
20260504214552 27 270 3.2 6.4 0.00 0.00 0.00 49 1011.8
20260504213950 27 113 6.4 6.4 0.00 0.00 0.00 49 1011.8
20260504211527 27 0 8.0 16.1 0.00 0.00 0.00 48 1012.1
20260504210950 26 180 6.4 11.3 0.00 0.00 0.00 51 1011.8
20260504210330 27 45 9.7 17.7 0.00 0.00 0.00 49 1011.8
20260504205734 26 68 3.2 6.4 0.00 0.00 0.00 50 1011.8
20260504205140 26 248 4.8 17.7 0.00 0.00 0.00 52 1012.1
20260504204542 26 203 8.0 12.9 0.00 0.00 0.00 52 1012.1
20260504203931 26 203 4.8 8.0 0.00 0.00 0.00 53 1012.1
20260504202734 26 248 3.2 4.8 0.00 0.00 0.00 53 1012.1
20260504202114 26 0 3.2 6.4 0.00 0.00 0.00 54 1012.5
20260504201541 25 180 3.2 4.8 0.00 0.00 0.00 54 1012.5
20260504200320 25 203 4.8 8.0 0.00 0.00 0.00 56 1012.8
20260504195752 25 180 4.8 4.8 0.00 0.00 0.00 58 1012.8
20260504195124 25 113 1.6 4.8 0.00 0.00 0.00 60 1013.2
20260504194552 24 23 6.4 6.4 0.00 0.00 0.00 62 1013.2
20260504193936 23 23 3.2 3.2 0.00 0.00 0.00 63 1013.2
20260504193337 22 225 1.6 3.2 0.00 0.00 0.00 68 1013.5
20260504192722 22 23 3.2 3.2 0.00 0.00 0.00 70 1013.8
20260504192139 21 225 0.0 4.8 0.00 0.00 0.00 70 1013.8
20260504191533 20 203 4.8 4.8 0.00 0.00 0.00 77 1014.2
20260504190949 20 0 6.4 6.4 0.00 0.00 0.00 71 1014.2
20260504185733 21 0 6.4 9.7 0.00 0.00 0.00 60 1014.5
20260504184535 22 0 4.8 11.3 0.00 0.00 0.00 61 1013.8
20260504183943 23 270 4.8 11.3 0.00 0.00 0.00 56 1013.5
20260504183329 23 225 4.8 6.4 0.00 0.00 0.00 57 1013.8
20260504182741 23 248 3.2 4.8 0.00 0.00 0.00 57 1013.5
20260504182142 23 135 3.2 9.7 0.00 0.00 0.00 55 1013.5
20260504181512 24 270 6.4 9.7 0.00 0.00 0.00 55 1013.5
20260504180923 25 248 6.4 9.7 0.00 0.00 0.00 55 1013.5
20260504180320 24 225 1.6 3.2 0.00 0.00 0.00 54 1013.5
20260504175748 24 225 6.4 6.4 0.00 0.00 0.00 55 1013.5
20260504174534 23 315 14.5 14.5 0.00 0.00 0.00 54 1013.8
20260504173931 23 113 4.8 9.7 0.00 0.00 0.00 55 1013.8
20260504172713 23 338 6.4 6.4 0.00 0.00 0.00 55 1014.2
20260504172134 23 225 9.7 9.7 0.00 0.00 0.00 56 1014.2
20260504171554 22 270 6.4 12.9 0.00 0.00 0.00 58 1014.2
20260504170919 22 158 6.4 11.3 0.00 0.00 0.00 60 1014.5
20260504170335 22 248 3.2 8.0 0.00 0.00 0.00 63 1014.5
20260504160347 18 0 4.8 4.8 0.00 0.00 0.00 71 1016.5
20260504141236 16 293 0.0 4.8 0.00 0.00 0.00 71 1016.9
20260504140653 16 135 0.0 4.8 0.00 0.00 0.00 69 1016.9
20260504130633 11 248 0.0 4.8 0.00 0.00 0.00 83 1016.9
20260504110627 5 225 0.0 0.0 0.00 0.00 0.00 99 1016.2